STARLINK-1363, 45568

Orbit data source: Space-Track

STARLINK-1363, 45568 is a payload satellite owned by SpaceX/Seattle (US) in LEO that was launched on Wed, 22 Apr 2020 UTC via an FALCON 9 launch vehicle from the Air Force Eastern Test Range (AFETR). Payloads include a variety of satellites, spacecraft, and rockets equipped with specific instruments for various scientific and technological missions. These include communications satellites like Starlink; space stations such as the ISS; scientific satellites like the Hubble; Earth observation satellites from companies like Planet Labs, Umbra, and HawkEye 360; GPS; miniature CubeSats for education and research; and military/defense satellites.

Loading next visibility...
STARLINK-1363 details
Identifier
45568, 2020-025AP
Orbit
LEO
Last TLE update11 hours ago
Origin
Flag of USSpaceX/Seattle (US)
ManufacturerSpaceX/Seattle
MissionOperational Commercial Communications
Bus & MotorSTARLINK, Unknown motor
Mass260 kg wet, ~248 kg dry
Launch date (UTC)
2020-04-22 (5 years ago)
Launch vehicle
FALCON 9
Launch site
Air Force Eastern Test Range (AFETR)
Object type
Payload
Rocket body
Debris
Shape & HBRBox + 1 Pan, 8.86 m
Radar Cross Section13.562 m², Large (>1 m²)

Expand to show TLE details & history

TLE from 11 hours ago
0 STARLINK-1363
1 45568U 20025AP  24361.02108725  .00014669  00000-0  10015-2 0  9993
2 45568  53.0532 256.1165 0001210  85.0318 275.0810 15.06403506258641
Epoch: 2024-12-26T00:30Z
Definitive object data (Epoch: 2024-12-26T00:30:21.938Z)
Latitude0.00006°
Longitude153.51867°
Altitude548.006 km
Speed7.589 km/s
True Right ascension17h 04m 27s
True Declination0° 00' 00"
Sunlit
Object was in daylight at TLE epoch
Visualization TLE readout
Latitude-32.4658°
Longitude123.05047°
Altitude557.775 km
Speed7.582 km/s
Apparent Right ascension18h 23m 04s
Apparent Declination-53° 44' 06"
Sunlit
Object is in daylight
Visualization observer readout
Local Sidereal Time10:49:20
Azimuth130.739° SE
Elevation-44.25°
Doppler factor1
Orbital elements
Apogee altitude548.31 km
Perigee altitude546.634 km
Semi-major axis6,925.609 km
Eccentricity0.000121
Inclination53.0532°
RAAN256.1165°
Arg. of periapsis85.0318°
True anomaly275.06719°
Mean anomaly275.081°
Eccentric anomaly275.07409°
Mean motion3.76579 °/min
BSTAR0.0010015
Orbital period95.6 mins
Loading maneuver chart data...
Loading historical data...
Loading historical data...
Loading historical data...
Loading historical data...
Loading historical data...
Loading historical data...
Loading historical data...

STARLINK-1363 Visibility forecast

Observer location: undefined°, undefined

Span
Click to sort rows by Start time (UTC) header in descending order
Start Az.
Max El. time (UTC)
Max El. Az.
Max El.
End time (UTC)
End Az.
7 mins2024-12-26 19:46:59.272Z220.426° SW2024-12-26 19:49:59.272Z187.608° SSW41.541°2024-12-26 19:53:59.272Z54.814° ENE
4 mins2024-12-26 21:28:59.272Z306.523° NW2024-12-26 21:29:59.272Z327.666° NNW21.769°2024-12-26 21:32:59.272Z24.147° NE
4 mins2024-12-27 00:49:59.272Z345.1° N2024-12-27 00:51:59.272Z20.563° NNE17.842°2024-12-27 00:53:59.272Z55.024° ENE
7 mins2024-12-27 02:28:59.272Z315.685° NNW2024-12-27 02:31:59.272Z34.327° NE43.312°2024-12-27 02:35:59.272Z122.534° SE
|